[[{"header":{"parameterUnit":"m.s-1","parameterCategory":1,"la1":30.2991,"la2":30.254,"lo1":-89.0895,"lo2":-89.0444,"dy":0.0017,"dx":0.0017,"nx":28,"ny":28,"refTime":"2024-04-22T21:00:00:Z","depth":0,"parameterNumber":2,"parameterNumberName":"U-component_of_WINDS"},"data":[0,0,0,0,0,0,0,0,0,0,0,0,0,0,0,0,0,0,0,0,0,0,0,0,0,0,0,0,0,0,0,0,0,0,0,0,0,0,0,0,0,0,0,0,0,0,0,0,0,0,0,0,0,0,0,0,0,0,-1.2541,-1.2541,0,-1.2558,-1.2558,-1.2558,-1.2547,-1.2546,-1.2545,-1.2545,-1.256,-1.2561,-1.2562,0,0,0,0,0,0,0,0,0,0,0,0,0,-1.2498,-1.2499,-1.2541,-1.2541,-1.2542,-1.2558,-1.2558,-1.2558,-1.2547,-1.2546,-1.2545,-1.2545,-1.256,-1.2561,-1.2562,0,0,0,0,0,0,0,0,0,0,0,0,0,-1.2516,-1.2499,-1.2541,-1.2538,-1.2538,-1.2558,-1.2558,-1.2558,-1.2547,-1.2546,-1.2545,-1.2544,-1.256,-1.2561,-1.2562,-1.2586,0,0,-1.2566,-1.2567,0,0,0,0,0,0,0,0,-1.2515,-1.2517,-1.2538,-1.2538,-1.2538,-1.2549,-1.2548,-1.2567,-1.2547,-1.2543,-1.2545,-1.2544,-1.2557,-1.2559,-1.2563,-1.2587,-1.2587,-1.2566,-1.2567,-1.2568,-1.2568,0,0,0,0,0,0,0,-1.2514,-1.2517,-1.2548,-1.2538,-1.2538,-1.2535,-1.2537,-1.2552,-1.2554,-1.2544,-1.2543,-1.2545,-1.2557,-1.2562,-1.2564,-1.2588,-1.2566,-1.2568,-1.2568,-1.2569,-1.263,-1.2631,0,0,0,0,0,0,-1.2513,-1.2516,-1.2547,-1.2548,-1.2524,-1.2536,-1.2538,-1.2546,-1.2554,-1.2555,-1.2546,-1.2544,-1.256,-1.2562,-1.2564,-1.2592,-1.2568,-1.2569,-1.257,-1.2629,-1.263,-1.2631,0,0,0,0,0,0,-1.2512,-1.2516,-1.2547,-1.2532,-1.2535,-1.2538,-1.2547,-1.2547,-1.2552,-1.2556,-1.2556,-1.2551,-1.256,-1.2562,-1.2581,-1.2592,-1.257,-1.2571,-1.2628,-1.263,-1.2631,-1.2648,0,0,0,0,0,0,-1.2511,-1.2516,-1.2525,-1.2532,-1.2536,-1.2563,-1.2548,-1.2548,-1.2555,-1.2553,-1.256,-1.2561,-1.2559,-1.2579,-1.2582,-1.2594,-1.2572,-1.2627,-1.2629,-1.263,-1.2646,-1.2649,-1.2652,0,0,0,0,0,-1.2509,-1.2529,-1.2526,-1.2529,-1.2548,-1.2564,-1.2566,-1.2565,-1.2556,-1.2565,-1.2567,-1.2561,-1.2591,-1.2581,-1.2584,-1.2596,-1.2627,-1.2629,-1.263,-1.2645,-1.2649,-1.2652,0,0,0,0,0,0,-1.2522,-1.253,-1.2526,-1.2549,-1.2556,-1.2562,-1.2573,-1.2569,-1.2578,-1.2577,-1.2574,-1.2575,-1.2594,-1.2597,-1.2586,-1.2619,-1.2607,-1.261,-1.2617,-1.262,-1.2623,-1.2622,-1.2573,0,0,0,0,0,-1.2528,-1.2541,-1.2546,-1.2566,-1.2569,-1.2571,-1.2578,-1.2576,-1.2583,-1.2586,-1.2589,-1.2596,-1.2607,-1.2614,-1.2624,-1.2647,-1.2647,-1.2657,-1.266,-1.2662,-1.2664,-1.2676,-1.268,-1.2637,-1.2637,-1.2637,0,0,-1.254,-1.2545,-1.2553,-1.2568,-1.2574,-1.2586,-1.2574,-1.2587,-1.2597,-1.2588,-1.2605,-1.2608,-1.2615,-1.2635,-1.2645,-1.2638,-1.2676,-1.2665,-1.2667,-1.2667,-1.2678,-1.2682,-1.2685,-1.2639,-1.2638,-1.2638,0,0,-1.2567,-1.2573,-1.2589,-1.2595,-1.2603,-1.2604,-1.2608,-1.2615,-1.2617,-1.2634,-1.2628,-1.2638,-1.2657,-1.2663,-1.2668,-1.2697,-1.2691,-1.27,-1.2716,-1.2727,-1.273,-1.2733,-1.2743,-1.2746,-1.2703,-1.2703,-1.2703,0,-1.258,-1.2599,-1.2598,-1.2613,-1.2619,-1.2612,-1.2628,-1.2634,-1.2645,-1.2649,-1.2643,-1.2666,-1.267,-1.2691,-1.2699,-1.2703,-1.2707,-1.2699,-1.273,-1.2733,-1.2736,-1.2745,-1.2748,-1.2704,-1.2704,-1.2703,-1.2703,0,-1.2614,-1.2628,-1.264,-1.2652,-1.2659,-1.2675,-1.2675,-1.2683,-1.2681,-1.2682,-1.27,-1.2705,-1.2716,-1.2721,-1.2719,-1.2742,-1.2737,-1.2731,-1.2718,-1.2741,-1.2749,-1.2753,-1.2705,-1.2705,-1.2705,-1.2704,0,0,-1.265,-1.2661,-1.2665,-1.267,-1.2679,-1.2689,-1.2704,-1.2715,-1.2721,-1.2729,-1.2741,-1.2757,-1.2751,-1.2757,-1.2755,-1.2765,-1.2787,-1.2756,-1.2756,-1.2761,-1.2811,-1.2816,-1.282,-1.2783,-1.2784,-1.2784,-1.281,0,-1.2677,-1.2703,-1.2703,-1.2727,-1.2739,-1.2732,-1.2745,-1.2751,-1.2753,-1.2763,-1.2765,-1.2776,-1.2767,-1.2771,-1.278,-1.2782,-1.2797,-1.278,-1.2793,-1.2794,-1.2791,-1.2825,-1.283,-1.2854,-1.2814,-1.2814,-1.2815,0,-1.2712,-1.2722,-1.2747,-1.2754,-1.2759,-1.277,-1.278,-1.279,-1.2797,-1.2798,-1.2804,-1.2801,-1.2815,-1.2803,-1.2822,-1.2811,-1.2816,-1.2818,-1.2818,-1.2819,-1.2805,-1.2825,-1.2862,-1.2865,-1.282,-1.282,-1.2819,0,-1.2734,-1.2754,-1.2771,-1.2776,-1.2784,-1.2792,-1.2796,-1.2802,-1.2809,-1.2818,-1.2822,-1.2832,-1.2837,-1.2845,-1.2844,-1.2835,-1.2863,-1.2851,-1.2863,-1.2863,-1.2868,-1.2868,-1.2905,-1.2873,-1.2873,-1.2873,-1.2873,0,-1.2764,-1.278,-1.2781,-1.2792,-1.2809,-1.2808,-1.2824,-1.2827,-1.2833,-1.2844,-1.2839,-1.2849,-1.2848,-1.2857,-1.2857,-1.2872,-1.2875,-1.2875,-1.2874,-1.2875,-1.2875,-1.2878,-1.2876,-1.2874,-1.2874,-1.2874,-1.2873,0,-1.2792,-1.2793,-1.2812,-1.2819,-1.2821,-1.2833,-1.2838,-1.2848,-1.285,-1.2863,-1.2866,-1.2868,-1.2879,-1.288,-1.2892,-1.2892,-1.291,-1.2908,-1.2908,-1.2907,-1.2919,-1.2918,-1.296,-1.2965,-1.293,-1.293,-1.2931,0,-1.281,-1.2822,-1.283,-1.2837,-1.2842,-1.2853,-1.286,-1.2859,-1.2866,-1.2875,-1.2884,-1.2895,-1.2903,-1.2922,-1.2924,-1.2933,-1.2931,-1.2945,-1.2932,-1.2932,-1.293,-1.2929,-1.293,-1.2947,-1.2948,-1.2948,-1.2948,0,-1.2842,-1.2843,-1.2853,-1.2864,-1.2872,-1.288,-1.2888,-1.2894,-1.2894,-1.2902,-1.2914,-1.2921,-1.2934,-1.2944,-1.2954,-1.2957,-1.2952,-1.2952,-1.2955,-1.2955,-1.2954,-1.2954,-1.2914,-1.2951,-1.2951,-1.295,-1.295,-1.295,-1.2865,-1.2875,-1.2883,-1.2894,-1.29,-1.2907,-1.2916,-1.2919,-1.2929,-1.294,-1.2939,-1.2952,-1.2958,-1.297,-1.2975,-1.2984,-1.2979,-1.2984,-1.2985,-1.2986,-1.2987,-1.2954,-1.2986,-1.2986,-1.2986,-1.2986,-1.2986,0,-1.2896,-1.2901,-1.2912,-1.2923,-1.2931,-1.2927,-1.2935,-1.2943,-1.2954,-1.2961,-1.297,-1.2983,-1.2993,-1.2996,-1.3006,-1.3013,-1.3011,-1.3016,-1.3015,-1.3015,-1.2991,-1.2987,-1.3017,-1.3017,-1.3017,-1.3017,-1.3017,-1.3017,-1.2914,-1.293,-1.2931,-1.2951,-1.2955,-1.2968,-1.2973,-1.2979,-1.2984,-1.2999,-1.3008,-1.301,-1.3015,-1.3025,-1.3034,-1.3035,-1.3038,-1.3044,-1.3043,-1.302,-1.3017,-1.3014,-1.301,-1.3045,-1.3045,-1.3067,-1.3067,-1.3067]},{"header":{"parameterUnit":"m.s-1","parameterCategory":1,"la1":30.2991,"la2":30.254,"lo1":-89.0895,"lo2":-89.0444,"dy":0.0017,"dx":0.0017,"nx":28,"ny":28,"refTime":"2024-04-22T21:00:00:Z","depth":0,"parameterNumber":3,"parameterNumberName":"V-component_of_WINDS"},"data":[0,0,0,0,0,0,0,0,0,0,0,0,0,0,0,0,0,0,0,0,0,0,0,0,0,0,0,0,0,0,0,0,0,0,0,0,0,0,0,0,0,0,0,0,0,0,0,0,0,0,0,0,0,0,0,0,0,0,-3.0066,-3.0067,0,-3.0148,-3.0149,-3.0149,-3.0166,-3.0166,-3.0165,-3.0164,-3.0243,-3.0246,-3.0248,0,0,0,0,0,0,0,0,0,0,0,0,0,-2.992,-2.9923,-3.0066,-3.0067,-3.0068,-3.0147,-3.0149,-3.015,-3.0166,-3.0166,-3.0165,-3.0164,-3.0242,-3.0245,-3.0249,0,0,0,0,0,0,0,0,0,0,0,0,0,-2.999,-2.9923,-3.0066,-3.0086,-3.0089,-3.0147,-3.0149,-3.015,-3.0166,-3.0166,-3.0165,-3.0164,-3.0241,-3.0245,-3.0249,-3.0292,0,0,-3.0261,-3.0263,0,0,0,0,0,0,0,0,-2.9986,-2.9996,-3.0082,-3.0085,-3.0088,-3.0146,-3.0126,-3.0197,-3.0167,-3.0137,-3.0164,-3.0163,-3.0211,-3.0218,-3.0235,-3.0295,-3.0299,-3.0262,-3.0264,-3.0266,-3.0267,0,0,0,0,0,0,0,-2.9982,-2.9992,-3.0098,-3.0083,-3.0087,-3.0089,-3.0099,-3.014,-3.0178,-3.0139,-3.0141,-3.015,-3.0213,-3.0231,-3.0237,-3.03,-3.0261,-3.0265,-3.0268,-3.0269,-3.04,-3.0401,0,0,0,0,0,0,-2.9974,-2.9988,-3.0095,-3.0101,-3.0034,-3.0093,-3.0103,-3.0128,-3.0178,-3.0184,-3.0151,-3.0151,-3.0224,-3.0232,-3.024,-3.0293,-3.0266,-3.0269,-3.0272,-3.0399,-3.04,-3.0401,0,0,0,0,0,0,-2.9971,-2.9983,-3.0092,-3.0045,-3.0059,-3.0096,-3.0124,-3.013,-3.0148,-3.0187,-3.0193,-3.0163,-3.0224,-3.0234,-3.0279,-3.0296,-3.0271,-3.0275,-3.0397,-3.0399,-3.04,-3.0399,0,0,0,0,0,0,-2.9966,-2.9982,-3.0,-3.0045,-3.0061,-3.0131,-3.0125,-3.0132,-3.0156,-3.0156,-3.0199,-3.0206,-3.0224,-3.0273,-3.0283,-3.0301,-3.0278,-3.0396,-3.0398,-3.04,-3.0398,-3.04,-3.0403,0,0,0,0,0,-2.9961,-2.9995,-3.0,-3.0013,-3.0084,-3.0132,-3.0142,-3.0164,-3.0157,-3.0174,-3.0199,-3.0204,-3.0292,-3.0277,-3.0289,-3.0308,-3.0395,-3.0397,-3.04,-3.0397,-3.04,-3.0403,0,0,0,0,0,0,-2.9948,-3.0001,-3.0008,-3.0058,-3.0091,-3.0135,-3.0158,-3.0166,-3.02,-3.0199,-3.0224,-3.0233,-3.0277,-3.0297,-3.0279,-3.0352,-3.0343,-3.0348,-3.0337,-3.034,-3.0343,-3.0336,-3.0281,0,0,0,0,0,-2.9951,-2.9988,-3.0031,-3.0071,-3.0087,-3.012,-3.0141,-3.0156,-3.019,-3.0204,-3.0231,-3.0263,-3.0298,-3.032,-3.0355,-3.0401,-3.041,-3.042,-3.0422,-3.0424,-3.0428,-3.0453,-3.0458,-3.0409,-3.0409,-3.0409,0,0,-2.9958,-2.9991,-3.0012,-3.0069,-3.0096,-3.0132,-3.0131,-3.0169,-3.0195,-3.0209,-3.0253,-3.0275,-3.0312,-3.0358,-3.038,-3.0376,-3.0443,-3.0427,-3.0428,-3.0431,-3.0456,-3.0461,-3.0465,-3.0411,-3.041,-3.041,0,0,-2.9987,-3.0017,-3.0053,-3.0081,-3.0123,-3.0145,-3.0153,-3.0197,-3.0212,-3.0258,-3.0269,-3.03,-3.036,-3.0386,-3.0407,-3.0448,-3.0453,-3.0458,-3.047,-3.0495,-3.0499,-3.0502,-3.0516,-3.0521,-3.0462,-3.0462,-3.0462,0,-2.999,-3.0045,-3.007,-3.0108,-3.0132,-3.0149,-3.0185,-3.021,-3.026,-3.0276,-3.0272,-3.0348,-3.0374,-3.0426,-3.0436,-3.0453,-3.0462,-3.0453,-3.0497,-3.05,-3.0504,-3.0517,-3.0522,-3.0462,-3.0462,-3.0462,-3.0462,0,-3.0045,-3.0083,-3.0107,-3.0158,-3.0185,-3.0221,-3.0251,-3.0275,-3.0287,-3.0309,-3.0354,-3.0387,-3.0428,-3.0441,-3.0453,-3.0495,-3.0492,-3.0492,-3.0484,-3.0508,-3.0521,-3.0527,-3.0462,-3.0462,-3.0462,-3.0462,0,0,-3.0068,-3.0133,-3.0141,-3.0164,-3.0212,-3.0241,-3.0278,-3.032,-3.034,-3.0374,-3.0405,-3.0456,-3.0456,-3.048,-3.0495,-3.0517,-3.0546,-3.0514,-3.0516,-3.0518,-3.0594,-3.0593,-3.0598,-3.0551,-3.0552,-3.0553,-3.059,0,-3.0102,-3.0171,-3.0195,-3.0251,-3.0286,-3.0302,-3.0334,-3.0367,-3.0388,-3.042,-3.0442,-3.0478,-3.0477,-3.0491,-3.0514,-3.0538,-3.0561,-3.0536,-3.0578,-3.0579,-3.0567,-3.0605,-3.0604,-3.0638,-3.0596,-3.0597,-3.0597,0,-3.0152,-3.0189,-3.0248,-3.0293,-3.0308,-3.0337,-3.0377,-3.0408,-3.0444,-3.0458,-3.0486,-3.0499,-3.0537,-3.0528,-3.058,-3.0561,-3.058,-3.0595,-3.0597,-3.0601,-3.0589,-3.0609,-3.0649,-3.0654,-3.0606,-3.0605,-3.0604,0,-3.0161,-3.0226,-3.027,-3.0289,-3.0342,-3.0362,-3.0384,-3.042,-3.0444,-3.0479,-3.0494,-3.0532,-3.0553,-3.0582,-3.0605,-3.0596,-3.0654,-3.0647,-3.0666,-3.0665,-3.0676,-3.0675,-3.0719,-3.069,-3.069,-3.069,-3.069,0,-3.0197,-3.0232,-3.0275,-3.0302,-3.0342,-3.0369,-3.0408,-3.0431,-3.0463,-3.0494,-3.051,-3.0538,-3.0568,-3.0599,-3.0617,-3.0657,-3.0666,-3.0678,-3.0682,-3.0676,-3.0674,-3.0687,-3.0685,-3.0691,-3.0691,-3.0691,-3.0691,0,-3.0214,-3.0244,-3.0293,-3.034,-3.0352,-3.0379,-3.0419,-3.0445,-3.0467,-3.0506,-3.0516,-3.0551,-3.0589,-3.0616,-3.0664,-3.0676,-3.0719,-3.0724,-3.0707,-3.0709,-3.0726,-3.0724,-3.0779,-3.0788,-3.0754,-3.0755,-3.0755,0,-3.0234,-3.0262,-3.0312,-3.0335,-3.0358,-3.0394,-3.0419,-3.0447,-3.0472,-3.0516,-3.0537,-3.0576,-3.061,-3.067,-3.0698,-3.0735,-3.074,-3.0757,-3.0745,-3.0738,-3.0739,-3.0737,-3.0739,-3.0758,-3.0758,-3.0759,-3.0759,0,-3.0266,-3.028,-3.0317,-3.0358,-3.0388,-3.0421,-3.0455,-3.0472,-3.0506,-3.0533,-3.0573,-3.0599,-3.0649,-3.0688,-3.0728,-3.075,-3.0759,-3.0763,-3.0769,-3.0762,-3.0751,-3.0756,-3.0711,-3.0761,-3.076,-3.076,-3.076,-3.076,-3.0285,-3.0311,-3.0351,-3.039,-3.0419,-3.045,-3.0477,-3.0504,-3.0539,-3.0583,-3.0597,-3.0638,-3.0674,-3.0729,-3.0752,-3.0784,-3.0782,-3.0791,-3.0793,-3.0795,-3.0795,-3.0747,-3.0791,-3.0791,-3.0791,-3.0791,-3.0791,0,-3.0318,-3.0344,-3.0381,-3.0428,-3.0459,-3.0468,-3.0506,-3.0531,-3.0568,-3.0601,-3.0634,-3.068,-3.0718,-3.075,-3.0789,-3.0809,-3.0814,-3.0818,-3.0816,-3.0821,-3.0794,-3.0784,-3.0813,-3.0813,-3.0813,-3.0813,-3.0813,-3.0813,-3.0338,-3.0382,-3.0401,-3.0459,-3.0485,-3.0527,-3.0548,-3.0577,-3.0604,-3.0655,-3.0687,-3.0709,-3.0741,-3.0783,-3.0818,-3.0826,-3.0839,-3.0842,-3.0851,-3.0825,-3.0823,-3.082,-3.0811,-3.0845,-3.0845,-3.0875,-3.0876,-3.0876]}]]